Flag for U.S.A. Weather past 2 weeks in Lakewood, New Jersey, U.S.A.

Now
38 °F

Clear.


Feels Like: 33 °F
Forecast: 37 / 60 °F
Wind: 6 mph from Northwest

Location: Lakehurst Naval Air Station


UV Index: 5 (Moderate)

Visibility: N/A


Pressure: 29.87 "Hg

Humidity: 63%

Dew point: 26 °F

Location of LakewoodLocation

Historic Weather in Lakewood

°F

Lakewood temperature yesterday

Maximum temperature yesterday: 60 °F (at 3:00 PM)
Minimum temperature yesterday: 45 °F (at 11:00 PM)
Average temperature yesterday: 53 °F

Past Weeks' High & Low Weather Summary

 TemperatureHumidityPressure
High82 °F (Apr 13, 2:00 PM)100% (Apr 15, 9:00 AM)30.71 "Hg (Apr 15, 9:00 AM)
Low27 °F (Apr 10, 6:00 AM)15% (Apr 19, 3:00 PM)29.54 "Hg (Apr 22, 10:00 PM)
Average51 °F60%30.09 "Hg
* Reported Midnight between Apr 8 and Apr 9 — Midnight between Apr 23 and Apr 24, Lakewood, Weather by CustomWeather, © 2014

Note: Actual official high and low records may vary slightly from our data, if they occured in-between our weather recording intervals... More about our weather records

Advertising

Historic Weather Conditions — Data for Previous 24 hours

 ConditionsComfort  
Time TempWeatherWind HumidityBarometerVisibility
12:00 AM
Apr 24
44 °FClear.12 mph49%29.87 "HgN/A
11:00 PM
Apr 23
45 °FPassing clouds.14 mph49%29.86 "HgN/A
10:00 PM47 °FOvercast.17 mph52%29.83 "HgN/A
9:00 PM50 °FPassing clouds.15 mph46%29.79 "HgN/A
8:00 PM51 °FPassing clouds.10 mph50%29.75 "HgN/A
7:00 PM55 °FSunny.14 mph42%29.71 "HgN/A
6:00 PM59 °FScattered clouds.18 mph38%29.67 "HgN/A
5:00 PM60 °FScattered clouds.23 mph36%29.65 "HgN/A
4:00 PM59 °FPartly sunny.13 mph38%29.64 "HgN/A
3:00 PM60 °FPartly sunny.20 mph38%29.62 "HgN/A
2:00 PM58 °FPartly sunny.16 mph41%29.61 "HgN/A
1:00 PM56 °FOvercast.22 mph44%29.61 "HgN/A
12:00 PM55 °FPartly sunny.15 mph45%29.62 "HgN/A
11:00 AM53 °FPartly sunny.20 mph47%29.63 "HgN/A
10:00 AM50 °FOvercast.23 mph54%29.63 "HgN/A
9:00 AM51 °FOvercast.16 mph50%29.62 "HgN/A
8:00 AM51 °FSunny.20 mph50%29.61 "HgN/A
7:00 AM49 °FClear.13 mph52%29.60 "HgN/A
5:00 AM49 °FPassing clouds.17 mph52%29.57 "HgN/A
4:00 AM52 °FPassing clouds.15 mph55%29.55 "HgN/A
3:00 AM57 °FMostly cloudy.16 mph53%29.54 "HgN/A
Weather by CustomWeather, © 2014

See weather overview